Simultaneous Nadir Overpasses (SNOs) Predictions

Prediction of SNOs between NOAA-19 and TERRA Satellite Orbit:

Table of predicted SNOs for the next 14.0 days since TLE Epoch: 8/26/2023
Index Date (NOAA-19) Time (NOAA-19) Lat,Lon (NOAA-19) SZA (NOAA-19 ) Date (TERRA) Time (TERRA) Lat,Lon (TERRA) SZA (TERRA ) Distance(km) Time Diff (sec)
1 08/27/2023 08:08:36 -80.83, -90.58 107.96 08/27/2023 08:09:17 -80.83, -90.58 107.94 0.22 41
2 08/27/2023 08:59:30 80.84, 77.17 72.11 08/27/2023 08:58:39 80.84, 77.23 72.10 0.95 51
3 08/29/2023 11:58:57 80.83, 31.79 72.82 08/29/2023 11:59:30 80.83, 31.93 72.85 2.73 33
4 08/29/2023 12:49:59 -80.84,-160.25 107.10 08/29/2023 12:48:51 -80.86,-160.13 107.10 2.79 68
5 08/31/2023 15:49:27 -80.82, 154.08 106.42 08/31/2023 15:49:43 -80.82, 154.15 106.41 1.34 16
6 08/31/2023 16:39:57 80.95, -29.47 74.58 08/31/2023 16:38:47 81.30, -31.67 74.59 53.67 70
7 09/02/2023 19:39:46 80.83, -83.18 74.42 09/02/2023 19:39:55 80.83, -83.25 74.42 1.32 9
8 09/04/2023 23:30:16 -80.83, 39.22 104.78 09/04/2023 23:30:07 -80.83, 39.12 104.79 1.82 9
9 09/07/2023 02:29:47 -80.77, -7.72 104.20 09/07/2023 02:31:01 -80.70, -7.58 104.23 8.02 74



Historial Predications of SNOs between NOAA-19 and TERRA
